Regional Weather Roundup
Issued by NWS

Home | Current Version | Previous Version | Text Only | Print | Product List | Glossary Off
Versions: 1 2 3 4 5 6 7 8 9 10 11 12 13 14 15 16 17 18 19 20 21 22 23 24 25 26 27 28 29 30 31 32 33 34 35 36 37 38 39 40 41 42 43 44 45 46 47 48 49 50

000
ASUS43 KTOP 031459
RWRKS

WEATHER ROUNDUP FOR KANSAS
NATIONAL WEATHER SERVICE GOODLAND KS
1000 AM CDT TUE MAY 03 2016

NOTE:  "FAIR" INDICATES FEW OR NO CLOUDS BELOW 12,000 FEET WITH NO
SIGNIFICANT WEATHER AND/OR OBSTRUCTIONS TO VISIBILITY.

KSZ001>006-013>018-027>032-041>047-031600-
NORTHWEST KANSAS

CITY           SKY/WX    TMP DP  RH WIND       PRES   REMARKS
GOODLAND       SUNNY     50  40  68 NW13      30.10R
HAYS           SUNNY     57  37  47 CALM      30.07S
HILL CITY      SUNNY     57  43  59 N7        30.08R
RUSSELL        SUNNY     61  43  51 N9        30.03S
$$

KSZ061>065-074>080-084>089-031600-
SOUTHWEST KANSAS

CITY           SKY/WX    TMP DP  RH WIND       PRES   REMARKS
DODGE CITY     CLOUDY    54  39  57 SW8       30.07S
ELKHART          N/A     59  35  40 NW14        N/A
GARDEN CITY    SUNNY     54  39  57 N9        30.07R
GREAT BEND     SUNNY     57  39  51 N3        30.05F
LIBERAL        SUNNY     57  45  62 NW15      30.08S
$$

KSZ066>073-081>083-090>101-031600-
SOUTHEAST KANSAS

CITY           SKY/WX    TMP DP  RH WIND       PRES   REMARKS
CHANUTE        SUNNY     61  43  51 CALM      30.11S
COFFEYVILLE    SUNNY     58  47  66 CALM      30.12R
HUTCHINSON     MOSUNNY   58  44  60 S7        30.07F
MEDICINE LODGE   N/A     56  44  64 SW3       30.07S
NEWTON         SUNNY     57  43  58 SW6       30.11R
PARSONS        SUNNY     59  44  57 CALM      30.12S
WICHITA INTL   MOSUNNY   57  46  66 S3        30.09R
WICHITA JABRA  SUNNY     59  45  59 MISG      30.08S
WINFIELD         N/A     60  46  59 SW9       30.20R
$$

KSZ007>012-019>026-033>040-048>060-102>105-031600-
NORTHEAST KANSAS

CITY           SKY/WX    TMP DP  RH WIND       PRES   REMARKS
CONCORDIA      SUNNY     60  46  59 E6        30.05S
EMPORIA        SUNNY     60  44  55 S5        30.09S
LAWRENCE       SUNNY     58  49  72 CALM      30.09F
MANHATTAN      SUNNY     60  46  59 CALM      30.08S
OLATHE IND     SUNNY     59  45  59 W6        30.10S
OLATHE EXE     SUNNY     58  45  62 W7        30.09S
SALINA         SUNNY     60  47  61 S6        30.06S
TOPEKA BILLARD SUNNY     59  46  62 SW6       30.09F
TOPEKA FORBES  SUNNY     60  47  61 SW5       30.09F
$$




USA.gov is the U.S. government's official web portal to all federal, state and local government web resources and services.